GFSFLT2_prec_snow_177.txt.gz
Snowfall_Accumulation
0.2 1.1 0.5 0.0 0.0 0.0 0.0 0.0 0.0 0.1 0.0 0.0 0.0 0.0 0.0 0.1 0.0 0.0 0.0 0.0 0.0 0.0 0.0 0.0 0.0 0.0 0.0
0.8 0.6 0.3 0.0 0.0 0.0 0.0 0.2 0.1 0.0 0.0 0.0 0.0 0.0 0.0 0.0 0.0 0.3 0.1 0.0 0.0 0.0 0.0 0.0 0.0 0.0 0.0
0.5 0.0 0.2 1.0 0.1 0.0 0.0 0.0 0.0 0.0 0.0 0.0 0.0 0.0 0.0 0.1 0.2 0.3 0.5 0.6 0.4 0.0 0.0 0.0 0.0 0.0 0.0
0.9 0.8 0.5 0.1 0.3 0.0 0.0 0.0 0.0 0.0 0.0 0.0 0.0 0.0 0.0 0.0 0.0 0.0 0.0 0.0 0.0 0.0 0.1 0.0 0.1 0.0 0.0
2.7 2.5 0.1 0.0 0.0 0.0 0.0 0.0 0.3 0.0 0.0 0.0 0.0 0.0 0.0 0.0 0.0 0.0 0.0 0.0 0.1 0.4 0.2 0.5 0.8 0.1 0.0
3.1 0.7 0.0 0.1 0.0 0.3 2.2 2.2 1.6 0.0 0.0 0.1 0.0 0.0 0.0 0.0 0.0 0.1 0.2 0.1 0.0 0.2 0.5 0.7 0.5 0.4 0.0
0.5 0.3 0.4 0.1 3.3 4.0 1.9 2.1 1.1 0.0 0.3 0.2 0.1 0.0 0.0 0.0 0.0 0.0 0.0 0.1 0.2 0.4 0.6 0.8 0.6 0.5 0.2
0.1 0.5 1.6 1.7 1.7 1.4 1.2 1.2 0.6 0.0 0.0 2.1 0.1 0.1 0.0 0.0 0.0 0.0 0.0 0.1 0.5 1.1 0.6 0.4 0.5 0.6 0.4
0.7 0.5 0.1 0.0 0.0 1.9 3.3 3.4 2.1 0.1 0.0 1.4 0.6 0.3 0.1 0.0 0.0 0.0 0.0 0.8 0.3 0.3 0.6 0.7 0.8 0.7 0.8
0.0 0.0 0.0 0.0 0.1 0.4 4.7 9.6 4.8 2.7 0.0 3.6 1.1 1.2 4.0 0.0 0.1 0.0 0.0 0.0 0.0 0.3 0.3 0.8 0.9 1.2 1.6
0.0 0.0 0.0 0.0 0.3 0.2 2.0 8.7 11.4 7.0 0.0 8.2 8.3 2.3 6.6 3.4 2.1 2.5 1.9 1.8 2.0 2.5 4.0 2.7 2.8 2.9 4.7
0.1 0.2 0.2 0.2 0.2 0.3 0.5 1.8 3.7 7.4 3.2 4.4 14.2 5.5 9.2 6.9 4.6 4.9 4.3 6.6 8.2 8.2 10.1 4.2 2.6 2.3 2.8
0.9 0.4 0.1 0.1 0.4 0.5 0.8 1.3 1.7 2.5 3.3 3.8 8.0 7.9 10.0 9.4 6.1 4.2 6.4 7.0 8.3 9.4 8.2 8.5 6.7 4.7 3.2
1.9 0.6 0.1 0.4 0.7 1.1 3.7 2.8 4.1 2.6 3.6 4.2 5.7 7.6 8.5 5.9 7.0 5.8 7.1 10.0 8.9 9.1 8.1 10.4 3.7 2.6 1.3
1.8 1.6 0.7 0.5 2.9 3.0 4.8 8.3 10.7 6.2 6.6 6.0 5.2 3.1 3.9 5.7 6.3 6.1 6.8 7.3 10.5 10.3 8.5 11.1 7.8 2.0 0.6
2.4 1.5 4.7 4.5 6.6 7.3 9.3 10.9 10.7 8.4 8.6 7.7 6.4 6.3 5.9 6.0 6.4 9.3 8.3 8.9 10.7 9.0 7.8 8.7 10.0 7.1 0.1
4.2 5.0 7.7 6.8 7.1 7.7 8.6 9.1 8.8 7.0 6.0 4.6 6.1 8.5 9.7 5.3 4.3 6.3 13.3 11.0 8.8 7.7 5.2 5.3 8.2 8.5 0.2

GFSFLT2_prec_snow_180.txt.gz
Snowfall_Accumulation
0.2 1.1 0.5 0.0 0.0 0.0 0.0 0.0 0.0 0.1 0.0 0.0 0.0 0.0 0.0 0.1 0.0 0.0 0.0 0.0 0.0 0.0 0.0 0.0 0.0 0.0 0.0
0.8 0.6 0.3 0.0 0.0 0.0 0.0 0.2 0.1 0.0 0.0 0.0 0.0 0.0 0.0 0.0 0.0 0.3 0.1 0.0 0.0 0.0 0.0 0.0 0.0 0.0 0.0
0.5 0.0 0.2 1.0 0.1 0.0 0.0 0.0 0.0 0.0 0.0 0.0 0.0 0.0 0.0 0.1 0.2 0.3 0.5 0.6 0.4 0.0 0.0 0.0 0.0 0.0 0.0
0.9 0.8 0.5 0.1 0.3 0.0 0.0 0.0 0.0 0.0 0.0 0.0 0.0 0.0 0.0 0.0 0.0 0.0 0.0 0.0 0.0 0.0 0.1 0.0 0.1 0.0 0.0
2.7 2.5 0.1 0.0 0.0 0.0 0.0 0.0 0.3 0.0 0.0 0.0 0.0 0.0 0.0 0.0 0.0 0.0 0.0 0.0 0.1 0.4 0.2 0.5 0.8 0.1 0.0
3.1 0.7 0.0 0.1 0.0 0.3 2.2 2.2 1.6 0.0 0.0 0.1 0.0 0.0 0.0 0.0 0.0 0.1 0.2 0.1 0.0 0.2 0.5 0.7 0.5 0.4 0.0
0.5 0.3 0.4 0.1 3.3 4.0 1.9 2.1 1.1 0.0 0.3 0.2 0.1 0.0 0.0 0.0 0.0 0.0 0.0 0.1 0.2 0.4 0.6 0.8 0.6 0.5 0.2
0.1 0.5 1.6 1.7 1.7 1.4 1.2 1.2 0.6 0.0 0.0 2.1 0.1 0.1 0.0 0.0 0.0 0.0 0.0 0.1 0.5 1.1 0.6 0.4 0.5 0.6 0.4
0.7 0.5 0.1 0.0 0.0 1.9 3.3 3.4 2.1 0.1 0.0 1.4 0.6 0.3 0.1 0.0 0.0 0.0 0.0 0.8 0.3 0.3 0.6 0.7 0.8 0.7 0.8
0.0 0.0 0.0 0.0 0.1 0.4 4.7 9.6 4.8 2.7 0.0 3.6 1.1 1.2 4.0 0.0 0.1 0.0 0.0 0.0 0.0 0.3 0.3 0.8 0.9 1.2 1.6
0.0 0.0 0.0 0.0 0.3 0.2 2.0 8.7 11.4 7.0 0.0 8.2 8.3 2.3 6.6 3.4 2.1 2.5 1.9 1.8 2.0 2.5 4.0 2.7 2.8 2.9 4.7
0.1 0.2 0.2 0.2 0.2 0.3 0.5 1.8 3.7 7.4 3.2 4.4 14.2 5.5 9.2 6.9 4.6 4.9 4.3 6.6 8.2 8.2 10.1 4.2 2.6 2.3 2.8
0.9 0.4 0.1 0.1 0.4 0.5 0.8 1.3 1.7 2.5 3.3 3.8 8.0 7.9 10.0 9.4 6.1 4.2 6.4 7.0 8.3 9.4 8.2 8.5 6.7 4.7 3.2
1.9 0.6 0.1 0.4 0.7 1.1 3.7 2.8 4.1 2.6 3.6 4.2 5.7 7.6 8.5 5.9 7.0 5.8 7.1 10.0 8.9 9.1 8.1 10.4 3.7 2.6 1.3
1.8 1.6 0.7 0.5 2.9 3.0 4.8 8.3 10.7 6.2 6.6 6.0 5.2 3.1 3.9 5.7 6.3 6.1 6.8 7.3 10.5 10.3 8.5 11.1 7.8 2.0 0.6
2.4 1.5 4.7 4.5 6.6 7.3 9.3 10.9 10.7 8.4 8.6 7.7 6.4 6.3 5.9 6.4 6.9 9.8 8.8 9.3 11.1 9.2 7.9 8.7 10.0 7.1 0.1
4.2 5.0 7.7 6.8 7.1 7.7 8.6 9.1 8.8 7.0 6.0 4.6 6.1 8.5 9.7 5.3 5.1 7.1 14.0 11.7 9.2 7.8 5.2 5.3 8.2 8.5 0.2

GFSFLT2_prec_snow_186.txt.gz
Snowfall_Accumulation
0.2 1.1 0.5 0.0 0.0 0.0 0.0 0.0 0.0 0.1 0.0 0.0 0.0 0.0 0.0 0.1 0.0 0.0 0.0 0.0 0.0 0.0 0.0 0.0 0.0 0.0 0.0
0.8 0.6 0.3 0.0 0.0 0.0 0.0 0.2 0.1 0.0 0.0 0.0 0.0 0.0 0.0 0.0 0.0 0.3 0.1 0.0 0.0 0.0 0.0 0.0 0.0 0.0 0.0
0.5 0.0 0.2 1.0 0.1 0.0 0.0 0.0 0.0 0.0 0.0 0.0 0.0 0.0 0.0 0.1 0.2 0.3 0.5 0.6 0.4 0.0 0.0 0.0 0.0 0.0 0.0
0.9 0.8 0.5 0.1 0.3 0.0 0.0 0.0 0.0 0.0 0.0 0.0 0.0 0.0 0.0 0.0 0.0 0.0 0.0 0.0 0.0 0.0 0.1 0.0 0.1 0.0 0.0
2.7 2.5 0.1 0.0 0.0 0.0 0.0 0.0 0.3 0.0 0.0 0.0 0.0 0.0 0.0 0.0 0.0 0.0 0.0 0.0 0.1 0.4 0.2 0.5 0.8 0.1 0.0
3.1 0.7 0.0 0.1 0.0 0.3 2.2 2.2 1.6 0.0 0.0 0.1 0.0 0.0 0.0 0.0 0.0 0.1 0.2 0.1 0.0 0.2 0.5 0.7 0.5 0.4 0.0
0.5 0.3 0.4 0.1 3.3 4.0 1.9 2.1 1.1 0.0 0.3 0.2 0.1 0.0 0.0 0.0 0.0 0.0 0.0 0.1 0.2 0.4 0.6 0.8 0.6 0.5 0.2
0.1 0.5 1.6 1.7 1.7 1.4 1.2 1.2 0.6 0.0 0.0 2.1 0.1 0.1 0.0 0.0 0.0 0.0 0.0 0.1 0.5 1.1 0.6 0.4 0.5 0.6 0.4
0.7 0.5 0.1 0.0 0.0 1.9 3.3 3.4 2.1 0.1 0.0 1.4 0.6 0.3 0.1 0.0 0.0 0.0 0.0 0.8 0.3 0.3 0.6 0.7 0.8 0.7 0.8
0.0 0.0 0.0 0.0 0.1 0.4 4.7 9.6 4.8 2.7 0.0 3.6 1.1 1.2 4.0 0.0 0.1 0.0 0.0 0.0 0.0 0.3 0.3 0.8 0.9 1.2 1.6
0.0 0.0 0.0 0.0 0.3 0.2 2.0 8.7 11.4 7.0 0.0 8.2 8.3 2.3 6.6 3.4 2.1 2.5 1.9 1.8 2.0 2.5 4.0 2.7 2.8 2.9 4.7
0.1 0.2 0.2 0.2 0.2 0.3 0.5 1.8 3.7 7.4 3.2 4.4 14.2 5.5 9.2 6.9 4.6 4.9 4.3 6.6 8.2 8.2 10.1 4.2 2.6 2.3 2.8
0.9 0.4 0.1 0.1 0.4 0.5 0.8 1.3 1.7 2.5 3.3 3.8 8.0 7.9 10.0 9.4 6.1 4.2 6.4 7.0 8.3 9.4 8.2 8.5 6.7 4.7 3.2
1.9 0.6 0.1 0.4 0.7 1.1 3.7 2.8 4.1 2.6 3.6 4.2 5.7 7.6 8.5 5.9 7.0 5.8 7.1 10.0 8.9 9.1 8.1 10.4 3.7 2.6 1.3
1.8 1.6 0.7 0.5 2.9 3.0 4.8 8.3 10.7 6.2 6.6 6.0 5.2 3.1 3.9 5.7 6.3 6.1 6.8 7.3 10.5 10.3 8.5 11.1 7.8 2.0 0.6
2.4 1.5 4.7 4.5 6.6 7.3 9.3 11.0 10.8 8.4 8.6 7.7 6.4 6.3 6.2 6.4 7.3 10.1 9.2 10.0 11.8 9.6 8.3 8.7 10.0 7.1 0.1
4.2 5.0 7.7 6.8 8.0 7.7 8.9 9.2 8.9 7.0 6.0 4.6 6.1 8.5 9.9 5.4 5.5 8.0 14.8 12.7 10.5 9.3 6.5 6.4 8.7 9.0 0.4

GFSFLT2_prec_snow_189.txt.gz
Snowfall_Accumulation
0.2 1.1 0.5 0.0 0.0 0.0 0.0 0.0 0.0 0.1 0.0 0.0 0.0 0.0 0.0 0.1 0.0 0.0 0.0 0.0 0.0 0.0 0.0 0.0 0.0 0.0 0.0
0.8 0.6 0.3 0.0 0.0 0.0 0.0 0.2 0.1 0.0 0.0 0.0 0.0 0.0 0.0 0.0 0.0 0.3 0.1 0.0 0.0 0.0 0.0 0.0 0.0 0.0 0.0
0.5 0.0 0.2 1.0 0.1 0.0 0.0 0.0 0.0 0.0 0.0 0.0 0.0 0.0 0.0 0.1 0.2 0.3 0.5 0.6 0.4 0.0 0.0 0.0 0.0 0.0 0.0
0.9 0.8 0.5 0.1 0.3 0.0 0.0 0.0 0.0 0.0 0.0 0.0 0.0 0.0 0.0 0.0 0.0 0.0 0.0 0.0 0.0 0.0 0.1 0.0 0.1 0.0 0.0
2.7 2.5 0.1 0.0 0.0 0.0 0.0 0.0 0.3 0.0 0.0 0.0 0.0 0.0 0.0 0.0 0.0 0.0 0.0 0.0 0.1 0.4 0.2 0.5 0.8 0.1 0.0
3.1 0.7 0.0 0.1 0.0 0.3 2.2 2.2 1.6 0.0 0.0 0.1 0.0 0.0 0.0 0.0 0.0 0.1 0.2 0.1 0.0 0.2 0.5 0.7 0.5 0.4 0.0
0.5 0.3 0.4 0.1 3.3 4.0 1.9 2.1 1.1 0.0 0.3 0.2 0.1 0.0 0.0 0.0 0.0 0.0 0.0 0.1 0.2 0.4 0.6 0.8 0.6 0.5 0.2
0.1 0.5 1.6 1.7 1.7 1.4 1.2 1.2 0.6 0.0 0.0 2.1 0.1 0.1 0.0 0.0 0.0 0.0 0.0 0.1 0.5 1.1 0.6 0.4 0.5 0.6 0.4
0.7 0.5 0.1 0.0 0.0 1.9 3.3 3.4 2.1 0.1 0.0 1.4 0.6 0.3 0.1 0.0 0.0 0.0 0.0 0.8 0.3 0.3 0.6 0.7 0.8 0.7 0.8
0.0 0.0 0.0 0.0 0.1 0.4 4.7 9.6 4.8 2.7 0.0 3.6 1.1 1.2 4.0 0.0 0.1 0.0 0.0 0.0 0.0 0.3 0.3 0.8 0.9 1.2 1.6
0.0 0.0 0.0 0.0 0.3 0.2 2.0 8.7 11.4 7.0 0.0 8.2 8.3 2.3 6.6 3.4 2.1 2.5 1.9 1.8 2.0 2.5 4.0 2.7 2.8 2.9 4.7
0.1 0.2 0.2 0.2 0.2 0.3 0.5 1.8 3.7 7.4 3.2 4.4 14.2 5.5 9.2 6.9 4.6 4.9 4.3 6.6 8.2 8.2 10.1 4.2 2.6 2.3 2.8
0.9 0.4 0.1 0.1 0.4 0.5 0.8 1.3 1.7 2.5 3.3 3.8 8.0 7.9 10.0 9.4 6.1 4.2 6.4 7.0 8.3 9.4 8.2 8.5 6.7 4.7 3.2
1.9 0.6 0.1 0.4 0.7 1.1 3.7 2.8 4.1 2.6 3.6 4.2 5.7 7.6 8.5 5.9 7.0 5.8 7.1 10.0 8.9 9.1 8.1 10.4 3.7 2.6 1.3
1.8 1.6 0.7 0.5 2.9 3.0 4.8 8.3 10.7 6.2 6.6 6.0 5.2 3.1 3.9 5.7 6.3 6.1 6.8 7.3 10.5 10.3 8.5 11.1 7.8 2.0 0.6
2.5 1.6 4.7 4.5 6.6 7.3 9.3 11.5 11.1 8.6 8.6 7.7 6.4 6.3 6.2 6.4 7.3 10.1 9.2 10.0 11.8 10.0 8.8 9.2 10.0 7.1 0.1
4.2 5.1 7.7 6.8 8.4 8.0 9.2 9.9 9.6 7.3 6.1 4.7 6.2 8.5 9.9 5.4 5.5 8.0 14.8 12.7 10.5 9.7 7.1 6.9 9.3 9.6 1.0

GFSFLT2_prec_snow_195.txt.gz
Snowfall_Accumulation
0.2 1.1 0.5 0.0 0.0 0.0 0.0 0.0 0.0 0.1 0.0 0.0 0.0 0.0 0.0 0.1 0.0 0.0 0.0 0.0 0.0 0.0 0.0 0.0 0.0 0.0 0.0
0.8 0.6 0.3 0.0 0.0 0.0 0.0 0.2 0.1 0.0 0.0 0.0 0.0 0.0 0.0 0.0 0.0 0.3 0.1 0.0 0.0 0.0 0.0 0.0 0.0 0.0 0.0
0.5 0.0 0.2 1.0 0.1 0.0 0.0 0.0 0.0 0.0 0.0 0.0 0.0 0.0 0.0 0.1 0.2 0.3 0.5 0.6 0.4 0.0 0.0 0.0 0.0 0.0 0.0
0.9 0.8 0.5 0.1 0.3 0.0 0.0 0.0 0.0 0.0 0.0 0.0 0.0 0.0 0.0 0.0 0.0 0.0 0.0 0.0 0.0 0.0 0.1 0.0 0.1 0.0 0.0
2.7 2.5 0.1 0.0 0.0 0.0 0.0 0.0 0.3 0.0 0.0 0.0 0.0 0.0 0.0 0.0 0.0 0.0 0.0 0.0 0.1 0.4 0.2 0.5 0.8 0.1 0.0
3.1 0.7 0.0 0.1 0.0 0.3 2.2 2.2 1.6 0.0 0.0 0.1 0.0 0.0 0.0 0.0 0.0 0.1 0.2 0.1 0.0 0.2 0.5 0.7 0.5 0.4 0.0
0.5 0.3 0.4 0.1 3.3 4.0 1.9 2.1 1.1 0.0 0.3 0.2 0.1 0.0 0.0 0.0 0.0 0.0 0.0 0.1 0.2 0.4 0.6 0.8 0.6 0.5 0.2
0.1 0.5 1.6 1.7 1.7 1.4 1.2 1.2 0.6 0.0 0.0 2.1 0.1 0.1 0.0 0.0 0.0 0.0 0.0 0.1 0.5 1.1 0.6 0.4 0.5 0.6 0.4
0.7 0.5 0.1 0.0 0.0 1.9 3.3 3.4 2.1 0.1 0.0 1.4 0.6 0.3 0.1 0.0 0.0 0.0 0.0 0.8 0.3 0.3 0.6 0.7 0.8 0.7 0.8
0.0 0.0 0.0 0.0 0.1 0.4 4.7 9.7 4.9 2.7 0.0 3.6 1.1 1.2 4.0 0.0 0.1 0.0 0.0 0.0 0.0 0.3 0.3 0.8 0.9 1.2 1.6
0.0 0.0 0.0 0.0 0.3 0.2 2.0 8.7 11.4 7.0 0.0 8.2 8.3 2.3 6.6 3.4 2.1 2.5 1.9 1.8 2.0 2.5 4.0 2.7 2.8 2.9 4.7
0.1 0.2 0.2 0.2 0.2 0.3 0.5 1.8 3.7 7.4 3.2 4.4 14.2 5.5 9.2 6.9 4.6 4.9 4.3 6.6 8.2 8.2 10.1 4.2 2.6 2.3 2.8
0.9 0.4 0.1 0.1 0.4 0.5 0.8 1.3 1.7 2.5 3.3 3.8 8.0 7.9 10.0 9.4 6.1 4.2 6.4 7.0 8.3 9.4 8.2 8.5 6.7 4.7 3.2
1.9 0.6 0.1 0.4 0.7 1.1 3.7 2.8 4.1 2.6 3.6 4.2 5.7 7.6 8.5 5.9 7.0 5.8 7.1 10.0 8.9 9.1 8.1 10.4 3.7 2.6 1.3
1.8 1.6 0.7 0.5 2.9 3.0 4.8 8.3 11.1 6.5 6.9 6.0 5.2 3.1 3.9 5.7 6.3 6.1 6.8 7.3 10.5 10.3 8.5 11.1 7.8 2.0 0.6
2.5 1.6 4.7 4.5 6.6 7.3 9.4 11.6 11.5 8.6 8.9 7.7 7.3 7.6 7.3 7.0 7.3 10.1 9.2 10.0 11.8 10.0 8.8 9.2 10.0 7.1 0.1
4.2 5.1 7.7 6.8 8.5 8.0 9.2 9.9 9.9 7.3 6.5 4.9 7.0 9.7 10.9 5.9 5.6 8.0 14.8 12.7 10.5 9.7 7.1 6.9 9.6 10.1 1.0

GFSFLT2_prec_snow_198.txt.gz
Snowfall_Accumulation
0.2 1.1 0.5 0.0 0.0 0.0 0.0 0.0 0.0 0.1 0.0 0.0 0.0 0.0 0.0 0.1 0.0 0.0 0.0 0.0 0.0 0.0 0.0 0.0 0.0 0.0 0.0
0.8 0.6 0.3 0.0 0.0 0.0 0.0 0.2 0.1 0.0 0.0 0.0 0.0 0.0 0.0 0.0 0.0 0.3 0.1 0.0 0.0 0.0 0.0 0.0 0.0 0.0 0.0
0.5 0.0 0.2 1.0 0.1 0.0 0.0 0.0 0.0 0.0 0.0 0.0 0.0 0.0 0.0 0.1 0.2 0.3 0.5 0.6 0.4 0.0 0.0 0.0 0.0 0.0 0.0
0.9 0.8 0.5 0.1 0.3 0.0 0.0 0.0 0.0 0.0 0.0 0.0 0.0 0.0 0.0 0.0 0.0 0.0 0.0 0.0 0.0 0.0 0.1 0.0 0.1 0.0 0.0
2.7 2.5 0.1 0.0 0.0 0.0 0.0 0.0 0.3 0.0 0.0 0.0 0.0 0.0 0.0 0.0 0.0 0.0 0.0 0.0 0.1 0.4 0.2 0.5 0.8 0.1 0.0
3.1 0.7 0.0 0.1 0.0 0.3 2.2 2.2 1.6 0.0 0.0 0.1 0.0 0.0 0.0 0.0 0.0 0.1 0.2 0.1 0.0 0.2 0.5 0.7 0.5 0.4 0.0
0.5 0.3 0.4 0.1 3.3 4.0 1.9 2.1 1.1 0.0 0.3 0.2 0.1 0.0 0.0 0.0 0.0 0.0 0.0 0.1 0.2 0.4 0.6 0.8 0.6 0.5 0.2
0.1 0.5 1.6 1.7 1.7 1.4 1.2 1.2 0.6 0.0 0.0 2.1 0.1 0.1 0.0 0.0 0.0 0.0 0.0 0.1 0.5 1.1 0.6 0.4 0.5 0.6 0.4
0.7 0.5 0.1 0.0 0.0 1.9 3.3 3.4 2.1 0.1 0.0 1.4 0.6 0.3 0.1 0.0 0.0 0.0 0.0 0.8 0.3 0.3 0.6 0.7 0.8 0.7 0.8
0.0 0.0 0.0 0.0 0.1 0.4 4.7 9.7 4.9 2.7 0.0 3.6 1.1 1.2 4.0 0.0 0.1 0.0 0.0 0.0 0.0 0.3 0.3 0.8 0.9 1.2 1.6
0.0 0.0 0.0 0.0 0.3 0.2 2.0 8.7 11.4 7.0 0.0 8.2 8.3 2.3 6.6 3.4 2.1 2.5 1.9 1.8 2.0 2.5 4.0 2.7 2.8 2.9 4.7
0.2 0.2 0.2 0.2 0.2 0.3 0.5 1.8 3.7 7.4 3.2 4.4 14.2 5.5 9.2 7.2 4.6 4.9 4.3 6.6 8.2 8.2 10.1 4.2 2.6 2.3 2.8
0.9 0.4 0.1 0.1 0.4 0.5 0.8 1.3 1.7 2.5 3.3 3.8 8.0 7.9 10.0 9.4 6.1 4.2 6.4 7.0 8.3 9.4 8.2 8.5 6.7 4.7 3.2
1.9 0.6 0.1 0.4 0.7 1.1 3.7 2.8 4.1 2.6 3.6 4.2 5.7 7.6 8.5 5.9 7.0 5.8 7.1 10.0 8.9 9.1 8.1 10.4 3.7 2.6 1.3
1.8 1.6 0.7 0.5 2.9 3.0 4.8 8.3 11.1 6.5 6.9 6.0 5.2 3.1 3.9 5.7 6.7 6.1 6.8 7.3 10.5 10.3 8.5 11.1 7.8 2.0 0.6
2.5 1.6 4.7 4.5 6.6 7.3 9.4 11.6 11.5 8.6 8.9 7.7 7.3 7.6 7.3 7.0 7.3 10.2 9.2 10.0 11.8 10.0 8.8 9.2 10.0 7.1 0.1
4.2 5.1 7.7 6.8 8.5 8.0 9.2 9.9 9.9 7.3 6.5 4.9 7.0 9.7 10.9 6.2 5.6 8.0 14.8 12.7 10.5 9.8 7.2 7.0 9.6 10.1 1.0

GFSFLT2_prec_snow_201.txt.gz
Snowfall_Accumulation
0.2 1.1 0.5 0.0 0.0 0.0 0.0 0.0 0.0 0.1 0.0 0.0 0.0 0.0 0.0 0.1 0.0 0.0 0.0 0.0 0.0 0.0 0.0 0.0 0.0 0.0 0.0
0.8 0.6 0.3 0.0 0.0 0.0 0.0 0.2 0.1 0.0 0.0 0.0 0.0 0.0 0.0 0.0 0.0 0.3 0.1 0.0 0.0 0.0 0.0 0.0 0.0 0.0 0.0
0.5 0.0 0.2 1.0 0.1 0.0 0.0 0.0 0.0 0.0 0.0 0.0 0.0 0.0 0.0 0.1 0.2 0.3 0.5 0.6 0.4 0.0 0.0 0.0 0.0 0.0 0.0
0.9 0.8 0.5 0.1 0.3 0.0 0.0 0.0 0.0 0.0 0.0 0.0 0.0 0.0 0.0 0.0 0.0 0.0 0.0 0.0 0.0 0.0 0.1 0.0 0.1 0.0 0.0
2.7 2.5 0.1 0.0 0.0 0.0 0.0 0.0 0.3 0.0 0.0 0.0 0.0 0.0 0.0 0.0 0.0 0.0 0.0 0.0 0.1 0.4 0.2 0.5 0.8 0.1 0.0
3.1 0.7 0.0 0.1 0.0 0.3 2.2 2.2 1.6 0.0 0.0 0.1 0.0 0.0 0.0 0.0 0.0 0.1 0.2 0.1 0.0 0.2 0.5 0.7 0.5 0.4 0.0
0.5 0.3 0.4 0.1 3.3 4.0 1.9 2.1 1.1 0.0 0.3 0.2 0.1 0.0 0.0 0.0 0.0 0.0 0.0 0.1 0.2 0.4 0.6 0.8 0.6 0.5 0.2
0.1 0.5 1.6 1.7 1.7 1.4 1.2 1.2 0.6 0.0 0.0 2.1 0.1 0.1 0.0 0.0 0.0 0.0 0.0 0.1 0.5 1.1 0.6 0.4 0.5 0.6 0.4
0.7 0.5 0.1 0.0 0.0 1.9 3.3 3.4 2.2 0.1 0.0 1.4 0.6 0.3 0.1 0.0 0.0 0.0 0.0 0.8 0.3 0.3 0.6 0.7 0.8 0.7 0.8
0.0 0.0 0.0 0.0 0.1 0.4 4.7 9.8 4.9 2.7 0.0 3.6 1.1 1.2 4.0 0.0 0.1 0.0 0.0 0.0 0.0 0.3 0.3 0.8 0.9 1.2 1.6
0.0 0.0 0.0 0.0 0.3 0.2 2.0 8.7 11.4 7.0 0.0 8.2 8.3 2.3 6.6 3.4 2.1 2.5 1.9 1.8 2.0 2.5 4.0 2.7 2.8 2.9 4.7
0.4 0.2 0.2 0.3 0.2 0.3 0.5 1.8 3.7 7.4 3.2 4.4 14.2 5.5 9.2 7.2 4.6 4.9 4.3 6.6 8.2 8.2 10.1 4.2 2.6 2.3 2.8
0.9 0.4 0.1 0.1 0.4 0.5 0.8 1.3 1.7 2.5 3.3 3.8 8.0 7.9 10.0 9.4 6.1 4.2 6.4 7.0 8.3 9.4 8.2 8.5 6.7 4.7 3.2
1.9 0.6 0.1 0.4 0.7 1.2 3.8 2.8 4.1 2.6 3.6 4.2 5.7 7.6 8.5 5.9 7.1 5.8 7.1 10.0 8.9 9.1 8.1 10.4 3.7 2.6 1.3
1.8 1.6 0.7 0.5 2.9 3.0 4.8 8.3 11.1 6.5 6.9 6.0 5.2 3.1 3.9 5.7 6.7 6.1 6.8 7.3 10.5 10.3 8.5 11.1 7.8 2.0 0.6
2.5 1.6 4.7 4.5 6.6 7.3 9.4 11.6 11.5 8.6 8.9 7.7 7.3 7.6 7.3 7.0 7.3 10.2 9.2 10.0 11.8 10.0 8.8 9.2 10.0 7.1 0.1
4.2 5.1 7.7 6.8 8.5 8.0 9.2 9.9 10.0 7.3 6.5 4.9 7.1 9.7 11.0 6.2 5.6 8.0 14.8 12.7 10.5 9.8 7.2 7.0 9.6 10.1 1.0

GFSFLT2_prec_snow_204.txt.gz
Snowfall_Accumulation
0.2 1.1 0.5 0.0 0.0 0.0 0.0 0.0 0.0 0.1 0.0 0.0 0.0 0.0 0.0 0.1 0.0 0.0 0.0 0.0 0.0 0.0 0.0 0.0 0.0 0.0 0.0
0.8 0.6 0.3 0.0 0.0 0.0 0.0 0.2 0.1 0.0 0.0 0.0 0.0 0.0 0.0 0.0 0.0 0.3 0.1 0.0 0.0 0.0 0.0 0.0 0.0 0.0 0.0
0.5 0.0 0.2 1.0 0.1 0.0 0.0 0.0 0.0 0.0 0.0 0.0 0.0 0.0 0.0 0.1 0.2 0.3 0.5 0.6 0.4 0.0 0.0 0.0 0.0 0.0 0.0
0.9 0.8 0.5 0.1 0.3 0.0 0.0 0.0 0.0 0.0 0.0 0.0 0.0 0.0 0.0 0.0 0.0 0.0 0.0 0.0 0.0 0.0 0.1 0.0 0.1 0.0 0.0
2.7 2.5 0.1 0.0 0.0 0.0 0.0 0.0 0.3 0.0 0.0 0.0 0.0 0.0 0.0 0.0 0.0 0.0 0.0 0.0 0.1 0.4 0.2 0.5 0.8 0.1 0.0
3.1 0.7 0.0 0.1 0.0 0.3 2.2 2.2 1.6 0.0 0.0 0.1 0.0 0.0 0.0 0.0 0.0 0.1 0.2 0.1 0.0 0.2 0.5 0.7 0.5 0.4 0.0
0.7 0.3 0.4 0.1 3.3 4.0 1.9 2.2 1.1 0.0 0.3 0.2 0.1 0.0 0.0 0.0 0.0 0.0 0.0 0.1 0.2 0.4 0.6 0.8 0.6 0.5 0.2
0.1 0.5 1.6 1.7 1.7 1.4 1.2 1.2 0.6 0.0 0.0 2.2 0.1 0.1 0.0 0.0 0.0 0.0 0.0 0.1 0.5 1.1 0.6 0.4 0.5 0.6 0.4
0.7 0.5 0.1 0.0 0.0 1.9 3.3 3.6 2.2 0.1 0.0 1.4 0.6 0.3 0.1 0.0 0.0 0.0 0.0 0.8 0.3 0.3 0.6 0.7 0.8 0.7 0.8
0.0 0.0 0.0 0.0 0.1 0.4 4.7 10.0 5.1 2.8 0.0 3.6 1.1 1.2 4.0 0.0 0.1 0.0 0.0 0.0 0.0 0.3 0.3 0.8 0.9 1.2 1.6
0.0 0.0 0.0 0.0 0.3 0.2 2.0 8.7 11.4 7.0 0.0 8.2 8.3 2.3 6.6 3.4 2.1 2.5 1.9 1.8 2.0 2.5 4.0 2.7 2.8 2.9 4.7
0.7 0.5 0.2 0.3 0.2 0.3 0.5 1.8 3.7 7.4 3.2 4.4 14.2 5.5 9.2 7.2 4.6 4.9 4.3 6.6 8.2 8.2 10.1 4.2 2.6 2.3 2.8
1.2 0.6 0.1 0.1 0.4 0.5 0.8 1.3 1.7 2.5 3.3 3.8 8.0 7.9 10.0 9.4 6.1 4.2 6.4 7.0 8.3 9.4 8.2 8.5 6.7 4.7 3.2
2.1 0.7 0.1 0.4 0.7 1.2 3.8 2.8 4.2 2.6 3.6 4.2 5.7 7.6 8.5 5.9 7.1 5.8 7.1 10.0 8.9 9.1 8.1 10.4 3.7 2.6 1.3
1.9 1.7 0.8 0.5 2.9 3.0 4.8 8.3 11.1 6.5 6.9 6.0 5.2 3.1 3.9 5.7 6.7 6.1 6.8 7.3 10.5 10.3 8.5 11.1 7.8 2.0 0.6
2.5 1.6 4.7 4.6 6.6 7.3 9.4 11.6 11.5 8.6 8.9 7.7 7.3 7.6 7.4 7.0 7.3 10.2 9.2 10.0 11.8 10.0 8.8 9.2 10.0 7.1 0.1
4.3 5.1 7.8 6.9 8.5 8.0 9.2 10.0 10.0 7.3 6.5 4.9 7.2 9.8 11.1 6.3 5.6 8.0 14.8 12.7 10.5 9.8 7.2 7.1 9.6 10.1 1.0

GFSFLT2_prec_snow_207.txt.gz
Snowfall_Accumulation
0.2 1.1 0.5 0.0 0.0 0.0 0.0 0.0 0.0 0.1 0.0 0.0 0.0 0.0 0.0 0.1 0.0 0.0 0.0 0.0 0.0 0.0 0.0 0.0 0.0 0.0 0.0
0.8 0.6 0.3 0.0 0.0 0.0 0.0 0.2 0.1 0.0 0.0 0.0 0.0 0.0 0.0 0.0 0.0 0.3 0.1 0.0 0.0 0.0 0.0 0.0 0.0 0.0 0.0
0.5 0.0 0.2 1.0 0.1 0.0 0.0 0.0 0.0 0.0 0.0 0.0 0.0 0.0 0.0 0.1 0.2 0.3 0.5 0.6 0.4 0.0 0.0 0.0 0.0 0.0 0.0
0.9 0.8 0.5 0.1 0.3 0.0 0.0 0.0 0.0 0.0 0.0 0.0 0.0 0.0 0.0 0.0 0.0 0.0 0.0 0.0 0.0 0.0 0.1 0.0 0.1 0.0 0.0
2.7 2.5 0.1 0.0 0.0 0.0 0.0 0.0 0.3 0.0 0.0 0.0 0.0 0.0 0.0 0.0 0.0 0.0 0.0 0.0 0.1 0.4 0.2 0.5 0.8 0.1 0.0
3.2 0.7 0.0 0.1 0.0 0.3 2.3 2.2 1.6 0.0 0.0 0.1 0.0 0.0 0.0 0.0 0.0 0.1 0.2 0.1 0.0 0.2 0.5 0.7 0.5 0.4 0.0
0.8 0.3 0.4 0.1 3.3 4.0 1.9 2.2 1.1 0.0 0.3 0.2 0.1 0.0 0.0 0.0 0.0 0.0 0.0 0.1 0.2 0.4 0.6 0.8 0.6 0.5 0.2
0.1 0.5 1.6 1.7 1.7 1.4 1.2 1.2 0.6 0.0 0.0 2.2 0.1 0.1 0.0 0.0 0.0 0.0 0.0 0.1 0.5 1.1 0.6 0.4 0.5 0.6 0.4
0.7 0.5 0.1 0.0 0.0 1.9 3.3 3.6 2.2 0.1 0.0 1.4 0.6 0.3 0.1 0.0 0.0 0.0 0.0 0.8 0.3 0.3 0.6 0.7 0.8 0.7 0.8
0.0 0.0 0.0 0.0 0.1 0.4 4.7 10.2 5.2 2.8 0.0 4.0 1.1 1.2 4.0 0.0 0.1 0.0 0.0 0.0 0.0 0.3 0.3 0.8 0.9 1.2 1.6
0.1 0.0 0.0 0.0 0.3 0.2 2.0 8.7 11.7 7.0 0.0 8.2 8.3 2.4 6.6 3.4 2.1 2.5 1.9 1.8 2.0 2.5 4.0 2.7 2.8 2.9 4.7
1.0 0.6 0.2 0.3 0.2 0.3 0.5 1.8 3.7 7.4 3.2 4.4 14.2 5.5 9.2 7.2 4.6 4.9 4.3 6.6 8.2 8.2 10.1 4.2 2.6 2.3 2.8
1.2 0.6 0.1 0.1 0.4 0.5 0.8 1.3 1.7 2.5 3.3 3.8 8.0 7.9 10.0 9.4 6.1 4.2 6.4 7.0 8.3 9.4 8.2 8.5 6.7 4.7 3.2
2.1 0.7 0.1 0.4 0.8 1.2 3.8 3.0 4.4 2.6 3.6 4.2 5.7 7.6 8.5 5.9 7.1 5.8 7.1 10.0 8.9 9.1 8.1 10.4 3.7 2.6 1.3
2.0 1.8 0.8 0.7 2.9 3.0 4.8 8.4 11.3 6.5 6.9 6.0 5.2 3.1 3.9 5.7 6.7 6.1 6.8 7.3 10.5 10.3 8.5 11.1 7.8 2.0 0.6
2.6 1.7 4.9 4.7 6.8 7.5 9.5 11.6 11.5 8.6 8.9 7.7 7.3 7.6 7.4 7.0 7.3 10.2 9.2 10.0 11.8 10.0 8.8 9.2 10.0 7.1 0.1
4.4 5.1 7.9 7.0 8.7 8.1 9.2 10.0 10.0 7.3 6.5 4.9 7.2 9.8 11.1 6.3 5.6 8.0 14.8 12.7 10.5 9.8 7.2 7.1 9.6 10.1 1.0